Home > Weather > Ettlingen > Past weeks

Flag for Germany Past Weather in Ettlingen, Baden-Württemberg, Germany — Yesterday and Last 2 Weeks

Now
79 °F

Sunny.


Feels Like: 81 °F
Forecast: 61 / 74 °F
Wind: 2 mph from North

Location: Karlsruhe - Baden Wurttemberg

Current Time: Jul 30, 2016 at 8:58:15 PM

Latest Report: Jul 30, 2016 at 8:20 PM


Visibility: 10 mi

Pressure: 29.89 "Hg

Humidity: 65%

Dew Point: 66 °F

Location of EttlingenLocation

Past Weather in Ettlingen — Graph

°F

Ettlingen Temperature Yesterday

Maximum temperature yesterday: 79 °F (at 2:20 PM)
Minimum temperature yesterday: 63 °F (at 4:50 AM)
Average temperature yesterday: 72 °F

High & Low Weather Summary for the Past Weeks

 TemperatureHumidityPressure
High93 °F (Jul 20, 3:50 PM)100% (Jul 18, 4:50 AM)30.33 "Hg (Jul 18, 4:50 AM)
Low50 °F (Jul 16, 4:50 AM)28% (Jul 20, 6:50 PM)29.89 "Hg (Jul 20, 6:20 PM)
Average73 °F71%30.07 "Hg
* Reported Jul 15 7:20 PM — Jul 30 7:50 PM, Ettlingen, Weather by CustomWeather, © 2016

Note: Actual official high and low records may vary slightly from our data, if they occured in-between our weather recording intervals... More about our weather records

Advertising

Ettlingen Weather History for the Previous 24 Hours

Scroll right to see more
 ConditionsComfort  
Time TempWeatherWind HumidityBarometerVisibility
7:50 PM
Sat, Jul 30
81 °FSunny.3 mph58%29.89 "Hg10 mi
7:20 PM81 °FPassing clouds.5 mph54%29.89 "HgN/A
6:50 PM81 °FPassing clouds.6 mph58%29.89 "HgN/A
6:20 PM81 °FSunny.5 mph51%29.89 "Hg10 mi
5:50 PM81 °FSunny.6 mph58%29.89 "Hg10 mi
5:20 PM84 °FPassing clouds.6 mph45%29.89 "HgN/A
4:50 PM82 °FPassing clouds.5 mph48%29.92 "HgN/A
4:20 PM82 °FSunny.3 mph51%29.92 "Hg10 mi
3:50 PM81 °FScattered clouds.6 mph51%29.92 "HgN/A
3:20 PM82 °FScattered clouds.6 mph51%29.92 "HgN/A
2:50 PM81 °FPartly sunny.3 mph54%29.92 "HgN/A
2:20 PM79 °FScattered clouds.5 mph58%29.95 "HgN/A
1:50 PM81 °FScattered clouds.7 mph58%29.95 "HgN/A
1:20 PM79 °FScattered clouds.3 mph58%29.95 "HgN/A
12:50 PM79 °FScattered clouds.6 mph58%29.95 "HgN/A
12:20 PM77 °FScattered clouds.3 mph61%29.95 "HgN/A
11:50 AM77 °FPassing clouds.5 mph61%29.95 "HgN/A
11:20 AM77 °FScattered clouds.5 mph65%29.95 "HgN/A
10:50 AM77 °FScattered clouds.5 mph65%29.95 "HgN/A
10:20 AM75 °FSunny.5 mph65%29.95 "Hg10 mi
9:50 AM73 °FPassing clouds.5 mph74%29.95 "HgN/A
9:20 AM72 °FPassing clouds.5 mph78%29.95 "HgN/A
8:50 AM70 °FPassing clouds.5 mph78%29.95 "HgN/A
8:20 AM70 °FBroken clouds.5 mph78%29.95 "HgN/A
7:50 AM68 °FScattered clouds.3 mph88%29.95 "HgN/A
7:20 AM66 °FBroken clouds.2 mph88%29.95 "HgN/A
6:50 AM66 °FPartly cloudy.1 mph88%29.95 "HgN/A
6:20 AM64 °FClear.2 mph94%29.95 "Hg10 mi
5:50 AM64 °FClear.3 mph94%29.95 "Hg10 mi
5:20 AM63 °FClear.5 mph94%29.95 "Hg10 mi
4:50 AM63 °FClear.3 mph100%29.95 "Hg10 mi
4:20 AM64 °FPassing clouds.7 mph94%29.95 "HgN/A
11:20 PM
Fri, Jul 29
70 °FClear.2 mph73%29.98 "Hg10 mi
10:50 PM70 °FClear.3 mph73%29.95 "Hg10 mi
10:20 PM72 °FClear.2 mph69%29.95 "Hg10 mi
9:50 PM72 °FPassing clouds.5 mph69%29.95 "HgN/A
9:20 PM73 °FSunny.2 mph65%29.95 "Hg10 mi
8:50 PM75 °FSunny.5 mph61%29.95 "Hg10 mi
8:20 PM77 °FPassing clouds.7 mph57%29.95 "HgN/A
Weather by CustomWeather, © 2016

See weather overviewHow to use our weather pages